Location: Landeleau
(48.2273°N, 3.7285°W)
Time: 01:58:42
(UTC+00:00)

Meteor 1-24 Rocket - Pass Details

Date: 30 March 2020
Orbit: 790 x 927 km, 81.3° (Epoch: 03 June)

Event Time Altitude Azimuth Distance (km) Brightness Sun altitude
Rises 19:14:45 0° 349° (NNW) 3,429 7.2 -6.0°
Reaches altitude 10° 19:17:13 10° 350° (N) 2,468 6.5 -6.4°
Maximum altitude 19:22:48 80° 78° (ENE) 838 3.6 -7.3°
Drops below altitude 10° 19:28:10 10° 166° (SSE) 2,375 5.8 -8.2°
Sets 19:30:31 0° 167° (SSE) 3,290 6.5 -8.6°
